Regional Weather Roundup
Issued by NWS

Home | Current Version | Previous Version | Graphics & Text | Print | Product List | Glossary On
Versions: 1 2 3 4 5 6 7 8 9 10 11 12 13 14 15 16 17 18 19 20 21 22 23 24 25 26 27 28 29 30 31 32 33 34 35 36 37 38 39 40 41 42 43 44 45 46 47 48 49 50
000
ASUS44 KMEG 190600
RWRTN
TENNESSEE HOURLY STATE WEATHER ROUNDUP
NATIONAL WEATHER SERVICE MEMPHIS TN
1200 AM CST FRI DEC 19 2014

TNZ002-004-019-021-049-052-054-088>092-190700-
WEST TENNESSEE

CITY           SKY/WX    TMP DP  RH WIND       PRES   REMARKS
MEMPHIS INTL   CLOUDY    44  37  76 VRB5      30.22F
NWS MEMPHIS      N/A     42 N/A N/A MISG        N/A
JACKSON        CLOUDY    41  35  79 N3        30.24S
DYERSBURG      CLOUDY    39  25  56 NE5       30.28S
UNION CITY     CLOUDY    34  32  93 N5        30.26R WCI  30
PARIS          CLOUDY    34  28  80 N5        30.25R WCI  30
LEXINGTON      CLOUDY    37  34  87 N3        30.23R
SAVANNAH       CLOUDY    39  36  87 CALM      30.24R
$$

TNZ008-025-027-028-033-062-065-066-190700-
NORTH MIDDLE TENNESSEE

CITY           SKY/WX    TMP DP  RH WIND       PRES   REMARKS
NASHVILLE      CLOUDY    36  32  85 N6        30.24F WCI  31
CLARKSVILLE    CLOUDY    34  29  82 N6        30.26S WCI  29
COOKEVILLE       N/A     34  32  93 CALM      30.19R
CROSSVILLE     CLOUDY    34  30  85 CALM      30.16F
$$

TNZ061-075-076-078-094-096-097-190700-
SOUTH MIDDLE TENNESSEE

CITY           SKY/WX    TMP DP  RH WIND       PRES   REMARKS
FAYETTEVILLE   CLEAR     30  30 100 CALM      30.19F
TULLAHOMA      CLEAR     28  28 100 CALM      30.19F
WINCHESTER     MOCLDY    28  28 100 CALM      30.20F
SHELBYVILLE    CLOUDY    34  34 100 CALM      30.21F
$$

TNZ017-018-042-046-047-190700-
NORTHEAST TENNESSEE

CITY           SKY/WX    TMP DP  RH WIND       PRES   REMARKS
TRI CITIES     CLOUDY    40  30  67 CALM      30.15S
ELIZABETHTON   CLOUDY    37  28  70 W3        30.14F
$$

TNZ012-013-036-069-073-074-190700-
CENTRAL EAST TENNESSEE

CITY           SKY/WX    TMP DP  RH WIND       PRES   REMARKS
KNOXVILLE      PTCLDY    38  27  64 CALM      30.17F
OAK RIDGE      MOCLDY    38  31  76 CALM      30.19F
GATLINBURG     CLOUDY    37  27  65 CALM      30.17F
$$

TNZ083-085-099-190700-
SOUTHEAST TENNESSEE

CITY           SKY/WX    TMP DP  RH WIND       PRES   REMARKS
CHATTANOOGA    CLEAR     38  34  85 CALM      30.19S
$$

SKY/WX REPORTED AS FAIR MEANS FEW OR NO CLOUDS BELOW
12 THOUSAND FEET.




USA.gov is the U.S. government's official web portal to all federal, state and local government web resources and services.